This is the latest recevied weather packets stored in our database for station/object EA3EH-1. If no packets are shown the sender has not sent any weather packets the latest 10 day(s).
| Time | Temp. | Humidity | Pressure | Rain* | Wind** | Luminosity | Snow |
|---|---|---|---|---|---|---|---|
| 1777547805 | 22.22° C | 22% | 1014 hPa | 0 mm | - | - | - |
| 1777547504 | 22.22° C | 19% | 1014 hPa | 0 mm | - | - | - |
| 1777547205 | 21.67° C | 19% | 1014 hPa | 0 mm | - | - | - |
| 1777546904 | 21.67° C | 16% | 1014 hPa | 0 mm | - | - | - |
| 1777546306 | 22.78° C | 16% | 1014 hPa | 0 mm | - | - | - |
| 1777546006 | 22.78° C | 16% | 1014 hPa | 0 mm | - | - | - |
| 1777545406 | 22.22° C | 13% | 1014 hPa | 0 mm | - | - | - |
| 1777545105 | 22.22° C | 14% | 1014 hPa | 0 mm | - | - | - |
| 1777544505 | 22.22° C | 16% | 1014 hPa | 0 mm | - | - | - |
| 1777544205 | 21.67° C | 16% | 1014 hPa | 0 mm | - | - | - |
| 1777543905 | 21.67° C | 19% | 1014 hPa | 0 mm | - | - | - |
| 1777542710 | 20.56° C | 22% | 1014 hPa | 0 mm | - | - | - |
| 1777542409 | 21.11° C | 23% | 1014 hPa | 0 mm | - | - | - |
| 1777542109 | 20.56° C | 24% | 1014 hPa | 0 mm | - | - | - |
| 1777541208 | 20° C | 28% | 1014 hPa | 0 mm | - | - | - |
| 1777540007 | 19.44° C | 34% | 1013 hPa | 0 mm | - | - | - |
| 1777538809 | 19.44° C | 39% | 1013 hPa | 0 mm | - | - | - |
| 1777538509 | 18.89° C | 41% | 1013 hPa | 0 mm | - | - | - |
| 1777537606 | 17.78° C | 44% | 1013 hPa | 0 mm | - | - | - |
| 1777537006 | 17.22° C | 45% | 1013 hPa | 0 mm | - | - | - |
| 1777536708 | 16.67° C | 46% | 1013 hPa | 0 mm | - | - | - |
| 1777536108 | 16.67° C | 46% | 1013 hPa | 0 mm | - | - | - |
| 1777535805 | 16.67° C | 46% | 1013 hPa | 0 mm | - | - | - |
| 1777535506 | 16.67° C | 46% | 1013 hPa | 0 mm | - | - | - |
| 1777535206 | 16.67° C | 46% | 1013 hPa | 0 mm | - | - | - |
* Rain latest hour (hover to see other rain measurements)
** Current wind speed in m/s (hover to see current wind gust speed)